Home > Weather > Bari > Past weeks

Flag for Italy Past Weather in Bari, Italy — Yesterday and Last 2 Weeks

Now
79 °F

Sunny.


Feels Like: 80 °F
Forecast: 67 / 83 °F
Wind: 3 mph from North

Location: Bari / Palese Macchie

Current Time: Aug 30, 2016 at 9:32:40 AM

Latest Report: Aug 30, 2016 at 8:50 AM


Visibility: 10 mi

Pressure: 30.01 "Hg

Humidity: 58%

Dew Point: 63 °F

Location of BariLocation

Past Weather in Bari — Graph

°F

Bari Temperature Yesterday

Maximum temperature yesterday: 86 °F (at 1:20 PM)
Minimum temperature yesterday: 66 °F (at 4:50 AM)
Average temperature yesterday: 77 °F

High & Low Weather Summary for the Past Weeks

 TemperatureHumidityPressure
High86 °F (Aug 16, 2:20 PM)94% (Aug 21, 3:50 AM)30.12 "Hg (Aug 21, 3:50 AM)
Low63 °F (Aug 16, 5:20 AM)31% (Aug 29, 1:20 PM)29.80 "Hg (Aug 18, 4:50 AM)
Average76 °F61%29.98 "Hg
* Reported Aug 15 7:20 AM — Aug 30 7:50 AM, Bari, Weather by CustomWeather, © 2016

Note: Actual official high and low records may vary slightly from our data, if they occured in-between our weather recording intervals... More about our weather records

Advertising

Bari Weather History for the Previous 24 Hours

Scroll right to see more
 ConditionsComfort  
Time TempWeatherWind HumidityBarometerVisibility
7:50 AM
Tue, Aug 30
73 °FSunny.3 mph69%30.01 "Hg10 mi
7:20 AM68 °FSunny.6 mph73%29.98 "Hg10 mi
6:50 AM66 °FClear.5 mph78%29.98 "Hg10 mi
6:20 AM66 °FClear.5 mph78%29.98 "Hg10 mi
5:50 AM66 °FClear.5 mph78%29.98 "Hg10 mi
5:20 AM68 °FClear.5 mph73%29.98 "Hg10 mi
4:50 AM68 °FClear.5 mph73%29.98 "Hg10 mi
4:20 AM68 °FClear.No wind73%29.98 "Hg10 mi
3:50 AM72 °FPassing clouds.5 mph65%29.98 "HgN/A
3:20 AM73 °FClear.7 mph61%29.98 "Hg10 mi
2:50 AM70 °FClear.5 mph64%29.98 "Hg10 mi
1:50 AM72 °FClear.6 mph57%29.98 "Hg10 mi
1:20 AM70 °FClear.5 mph60%30.01 "Hg10 mi
12:50 AM72 °FClear.3 mph57%30.01 "Hg10 mi
12:20 AM70 °FPassing clouds.6 mph64%30.01 "HgN/A
11:50 PM
Mon, Aug 29
72 °FPassing clouds.5 mph61%30.01 "HgN/A
11:20 PM72 °FPassing clouds.5 mph61%30.01 "HgN/A
10:50 PM72 °FClear.2 mph61%29.98 "Hg10 mi
10:20 PM73 °FClear.6 mph57%29.98 "Hg10 mi
9:50 PM73 °FClear.5 mph57%29.98 "Hg10 mi
9:20 PM73 °FClear.3 mph57%29.98 "Hg10 mi
8:50 PM75 °FClear.2 mph54%29.95 "Hg10 mi
8:20 PM77 °FSunny.2 mph51%29.95 "Hg10 mi
7:50 PM79 °FSunny.3 mph48%29.95 "Hg10 mi
7:20 PM81 °FPassing clouds.5 mph45%29.95 "HgN/A
6:50 PM81 °FPassing clouds.5 mph45%29.95 "HgN/A
6:20 PM82 °FSunny.8 mph40%29.95 "Hg10 mi
5:50 PM82 °FPassing clouds.8 mph45%29.95 "HgN/A
5:20 PM82 °FSunny.9 mph42%29.95 "Hg10 mi
4:50 PM84 °FSunny.9 mph40%29.95 "Hg10 mi
4:20 PM84 °FPassing clouds.9 mph40%29.95 "HgN/A
3:50 PM84 °FPassing clouds.10 mph37%29.98 "HgN/A
3:20 PM86 °FPassing clouds.8 mph35%29.98 "HgN/A
2:50 PM86 °FPassing clouds.8 mph35%29.98 "HgN/A
2:20 PM86 °FPassing clouds.7 mph38%29.98 "HgN/A
1:50 PM84 °FPassing clouds.9 mph35%29.98 "HgN/A
1:20 PM86 °FPassing clouds.8 mph31%30.01 "HgN/A
12:50 PM84 °FPassing clouds.7 mph35%30.01 "HgN/A
12:20 PM84 °FPassing clouds.7 mph35%30.01 "HgN/A
11:50 AM82 °FPassing clouds.8 mph42%30.01 "HgN/A
11:20 AM82 °FPassing clouds.7 mph45%30.01 "HgN/A
10:50 AM82 °FPassing clouds.8 mph40%30.01 "HgN/A
10:20 AM82 °FPassing clouds.8 mph37%30.04 "HgN/A
9:50 AM82 °FPassing clouds.7 mph40%30.04 "HgN/A
9:20 AM81 °FPassing clouds.6 mph45%30.01 "HgN/A
Weather by CustomWeather, © 2016

See weather overviewHow to use our weather pages